| time (UTC) | temp F | wind direction | speed MPH | gust MPH | rain 1hr in | rain 24hr in | rain mn in | humidity % | barometer mb |
| 20260510224343 | 64 | 322 | 1.0 | 4.0 | 0.00 | 0.00 | 0.00 | 97 | 915.0 |
| 20260510224245 | 64 | 271 | 2.0 | 4.0 | 0.00 | 0.00 | 0.00 | 97 | 914.9 |
| 20260510223843 | 64 | 226 | 1.0 | 4.0 | 0.00 | 0.00 | 0.00 | 97 | 914.9 |
| 20260510223644 | 64 | 289 | 2.0 | 4.0 | 0.00 | 0.00 | 0.00 | 97 | 914.9 |
| 20260510223343 | 64 | 283 | 1.0 | 3.0 | 0.00 | 0.00 | 0.00 | 97 | 914.9 |
| 20260510223044 | 64 | 259 | 1.0 | 5.0 | 0.00 | 0.00 | 0.00 | 97 | 914.8 |
| 20260510222843 | 64 | 286 | 0.0 | 5.0 | 0.00 | 0.00 | 0.00 | 97 | 914.8 |
| 20260510222444 | 64 | 260 | 2.0 | 6.0 | 0.00 | 0.00 | 0.00 | 97 | 914.7 |
| 20260510222343 | 64 | 258 | 2.0 | 6.0 | 0.00 | 0.00 | 0.00 | 97 | 914.7 |
| 20260510221845 | 64 | 218 | 2.0 | 6.0 | 0.00 | 0.00 | 0.00 | 97 | 914.7 |
| 20260510221843 | 64 | 216 | 2.0 | 6.0 | 0.00 | 0.00 | 0.00 | 97 | 914.7 |
| 20260510221343 | 64 | 252 | 2.0 | 6.0 | 0.00 | 0.00 | 0.00 | 97 | 914.6 |
| 20260510221244 | 64 | 309 | 2.0 | 6.0 | 0.00 | 0.00 | 0.00 | 97 | 914.6 |
| 20260510220843 | 64 | 257 | 1.0 | 6.0 | 0.00 | 0.00 | 0.00 | 97 | 914.6 |
| 20260510220644 | 64 | 312 | 2.0 | 6.0 | 0.00 | 0.00 | 0.00 | 97 | 914.6 |
| 20260510220343 | 64 | 360 | 1.0 | 6.0 | 0.00 | 0.00 | 0.00 | 97 | 914.6 |
| 20260510220044 | 64 | 264 | 2.0 | 6.0 | 0.00 | 0.00 | 0.00 | 96 | 914.6 |
| 20260510215843 | 64 | 299 | 1.0 | 5.0 | 0.00 | 0.00 | 0.00 | 96 | 914.5 |
| 20260510215444 | 64 | 275 | 3.0 | 6.0 | 0.00 | 0.00 | 0.00 | 96 | 914.5 |
| 20260510215343 | 64 | 290 | 3.0 | 6.0 | 0.00 | 0.00 | 0.00 | 96 | 914.4 |
| 20260510214845 | 64 | 304 | 3.0 | 6.0 | 0.00 | 0.00 | 0.00 | 96 | 914.3 |
| 20260510214843 | 64 | 296 | 3.0 | 6.0 | 0.00 | 0.00 | 0.00 | 96 | 914.4 |
| 20260510214343 | 64 | 303 | 2.0 | 4.0 | 0.00 | 0.00 | 0.00 | 96 | 914.4 |
| 20260510214244 | 64 | 360 | 2.0 | 4.0 | 0.00 | 0.00 | 0.00 | 96 | 914.4 |
| 20260510213843 | 64 | 279 | 1.0 | 3.0 | 0.00 | 0.00 | 0.00 | 96 | 914.3 |
| 20260510213644 | 64 | 292 | 0.0 | 3.0 | 0.00 | 0.00 | 0.00 | 96 | 914.3 |
| 20260510213342 | 64 | 284 | 1.0 | 3.0 | 0.00 | 0.00 | 0.00 | 96 | 914.3 |
| 20260510213044 | 64 | 273 | 1.0 | 3.0 | 0.00 | 0.00 | 0.00 | 96 | 914.3 |
| 20260510212843 | 64 | 84 | 0.0 | 3.0 | 0.00 | 0.00 | 0.00 | 96 | 914.3 |
| 20260510212444 | 64 | 350 | 1.0 | 6.0 | 0.00 | 0.00 | 0.00 | 96 | 914.3 |
| 20260510211844 | 64 | 343 | 3.0 | 6.0 | 0.00 | 0.00 | 0.00 | 96 | 914.2 |
| 20260510211244 | 64 | 306 | 3.0 | 4.0 | 0.00 | 0.00 | 0.00 | 96 | 914.1 |
| 20260510210842 | 64 | 290 | 3.0 | 5.0 | 0.00 | 0.00 | 0.00 | 96 | 914.1 |
| 20260510210644 | 64 | 304 | 3.0 | 5.0 | 0.00 | 0.00 | 0.00 | 96 | 914.1 |
| 20260510210342 | 64 | 304 | 3.0 | 5.0 | 0.00 | 0.00 | 0.00 | 95 | 914.1 |
| 20260510210044 | 64 | 311 | 3.0 | 5.0 | 0.00 | 0.00 | 0.00 | 95 | 914.0 |
| 20260510205843 | 64 | 298 | 3.0 | 5.0 | 0.00 | 0.00 | 0.00 | 95 | 914.1 |
| 20260510205444 | 64 | 279 | 3.0 | 5.0 | 0.00 | 0.00 | 0.00 | 95 | 914.1 |
| 20260510205342 | 64 | 310 | 2.0 | 5.0 | 0.00 | 0.00 | 0.00 | 95 | 914.1 |
| 20260510204844 | 64 | 295 | 2.0 | 5.0 | 0.00 | 0.00 | 0.00 | 95 | 914.0 |
| 20260510204842 | 64 | 299 | 2.0 | 5.0 | 0.00 | 0.00 | 0.00 | 95 | 914.1 |
| 20260510204243 | 65 | 311 | 3.0 | 4.0 | 0.00 | 0.00 | 0.00 | 95 | 914.0 |
| 20260510203842 | 65 | 321 | 3.0 | 4.0 | 0.00 | 0.00 | 0.00 | 95 | 914.0 |
| 20260510203643 | 65 | 305 | 3.0 | 4.0 | 0.00 | 0.00 | 0.00 | 95 | 914.0 |
| 20260510203342 | 65 | 314 | 3.0 | 5.0 | 0.00 | 0.00 | 0.00 | 95 | 913.9 |
| 20260510203044 | 65 | 316 | 3.0 | 5.0 | 0.00 | 0.00 | 0.00 | 95 | 913.9 |
| 20260510202842 | 65 | 309 | 2.0 | 5.0 | 0.00 | 0.00 | 0.00 | 95 | 913.9 |
| 20260510202443 | 65 | 284 | 3.0 | 5.0 | 0.00 | 0.00 | 0.00 | 95 | 913.9 |
| 20260510202342 | 65 | 322 | 3.0 | 5.0 | 0.00 | 0.00 | 0.00 | 95 | 913.9 |
| 20260510201845 | 65 | 294 | 5.0 | 5.0 | 0.00 | 0.00 | 0.00 | 94 | 913.8 |
| 20260510201843 | 65 | 283 | 5.0 | 5.0 | 0.00 | 0.00 | 0.00 | 94 | 913.8 |
| 20260510201342 | 65 | 285 | 3.0 | 4.0 | 0.00 | 0.00 | 0.00 | 94 | 913.8 |
| 20260510201243 | 65 | 290 | 3.0 | 4.0 | 0.00 | 0.00 | 0.00 | 94 | 913.8 |
| 20260510200842 | 65 | 290 | 3.0 | 4.0 | 0.00 | 0.00 | 0.00 | 94 | 913.8 |
| 20260510200643 | 65 | 291 | 3.0 | 4.0 | 0.00 | 0.00 | 0.00 | 93 | 913.8 |
| 20260510200342 | 65 | 295 | 2.0 | 3.0 | 0.00 | 0.00 | 0.00 | 93 | 913.8 |
| 20260510200043 | 65 | 285 | 2.0 | 3.0 | 0.00 | 0.00 | 0.00 | 93 | 913.9 |
| 20260510195842 | 65 | 305 | 2.0 | 4.0 | 0.00 | 0.00 | 0.00 | 93 | 913.9 |
| 20260510195443 | 65 | 291 | 2.0 | 4.0 | 0.00 | 0.00 | 0.00 | 92 | 913.8 |
| 20260510195342 | 65 | 309 | 3.0 | 4.0 | 0.00 | 0.00 | 0.00 | 92 | 913.8 |
| 20260510194844 | 66 | 305 | 2.0 | 5.0 | 0.00 | 0.00 | 0.00 | 91 | 913.9 |
| 20260510194842 | 66 | 313 | 2.0 | 5.0 | 0.00 | 0.00 | 0.00 | 91 | 913.8 |
| 20260510194343 | 66 | 349 | 2.0 | 5.0 | 0.00 | 0.00 | 0.00 | 91 | 913.8 |
| 20260510194243 | 66 | 289 | 1.0 | 4.0 | 0.00 | 0.00 | 0.00 | 91 | 913.8 |
| 20260510193842 | 66 | 295 | 2.0 | 4.0 | 0.00 | 0.00 | 0.00 | 92 | 913.8 |
| 20260510193643 | 66 | 281 | 2.0 | 4.0 | 0.00 | 0.00 | 0.00 | 92 | 913.8 |
| 20260510193342 | 66 | 287 | 3.0 | 5.0 | 0.00 | 0.00 | 0.00 | 92 | 913.9 |
| 20260510193043 | 66 | 299 | 3.0 | 5.0 | 0.00 | 0.00 | 0.00 | 91 | 913.8 |
| 20260510192841 | 66 | 296 | 3.0 | 5.0 | 0.00 | 0.00 | 0.00 | 91 | 913.8 |
| 20260510192443 | 66 | 270 | 2.0 | 4.0 | 0.00 | 0.00 | 0.00 | 91 | 913.9 |
| 20260510192342 | 66 | 267 | 1.0 | 4.0 | 0.00 | 0.00 | 0.00 | 91 | 913.8 |
| 20260510191844 | 66 | 266 | 2.0 | 4.0 | 0.00 | 0.00 | 0.00 | 91 | 913.9 |
| 20260510191842 | 66 | 268 | 2.0 | 4.0 | 0.00 | 0.00 | 0.00 | 91 | 913.9 |
| 20260510191341 | 65 | 268 | 2.0 | 3.0 | 0.00 | 0.00 | 0.00 | 91 | 913.8 |
| 20260510191243 | 65 | 265 | 2.0 | 3.0 | 0.00 | 0.00 | 0.00 | 91 | 913.9 |
| 20260510190842 | 66 | 258 | 2.0 | 3.0 | 0.00 | 0.00 | 0.00 | 90 | 913.9 |
| 20260510190643 | 66 | 253 | 2.0 | 3.0 | 0.00 | 0.00 | 0.00 | 90 | 913.9 |
| 20260510190341 | 66 | 238 | 2.0 | 3.0 | 0.00 | 0.00 | 0.00 | 90 | 914.0 |
| 20260510190043 | 66 | 245 | 2.0 | 3.0 | 0.00 | 0.00 | 0.00 | 90 | 913.9 |
| 20260510185841 | 66 | 228 | 2.0 | 3.0 | 0.00 | 0.00 | 0.00 | 90 | 913.9 |
| 20260510185443 | 66 | 258 | 1.0 | 2.0 | 0.00 | 0.00 | 0.00 | 90 | 914.0 |
| 20260510185341 | 66 | 258 | 1.0 | 2.0 | 0.00 | 0.00 | 0.00 | 90 | 914.0 |
| 20260510184843 | 66 | 275 | 1.0 | 2.0 | 0.00 | 0.00 | 0.00 | 90 | 914.0 |
| 20260510184243 | 66 | 269 | 1.0 | 2.0 | 0.00 | 0.00 | 0.00 | 90 | 914.1 |
| 20260510183643 | 66 | 248 | 1.0 | 3.0 | 0.00 | 0.00 | 0.00 | 90 | 914.0 |
| 20260510183341 | 66 | 280 | 2.0 | 3.0 | 0.00 | 0.00 | 0.00 | 90 | 914.1 |
| 20260510183043 | 66 | 292 | 2.0 | 3.0 | 0.00 | 0.00 | 0.00 | 90 | 914.1 |
| 20260510182841 | 66 | 277 | 2.0 | 3.0 | 0.00 | 0.00 | 0.00 | 90 | 914.1 |
| 20260510182442 | 66 | 284 | 0.0 | 1.0 | 0.00 | 0.00 | 0.00 | 89 | 914.1 |
| 20260510181843 | 66 | 289 | 0.0 | 1.0 | 0.00 | 0.00 | 0.00 | 89 | 913.9 |
| 20260510181841 | 66 | 291 | 0.0 | 1.0 | 0.00 | 0.00 | 0.00 | 89 | 914.0 |
| 20260510181341 | 67 | 222 | 0.0 | 0.0 | 0.00 | 0.00 | 0.00 | 88 | 914.0 |
| 20260510181242 | 67 | 239 | 0.0 | 0.0 | 0.00 | 0.00 | 0.00 | 88 | 914.0 |
| 20260510180841 | 66 | 209 | 0.0 | 0.0 | 0.00 | 0.00 | 0.00 | 90 | 914.0 |
| 20260510180042 | 66 | 204 | 0.0 | 0.0 | 0.00 | 0.00 | 0.00 | 89 | 914.1 |
| 20260510175841 | 66 | 200 | 0.0 | 0.0 | 0.00 | 0.00 | 0.00 | 90 | 914.1 |
| 20260510170841 | 67 | 33 | 0.0 | 0.0 | 0.00 | 0.00 | 0.00 | 89 | 914.4 |
| 20260510170642 | 67 | 27 | 0.0 | 0.0 | 0.00 | 0.00 | 0.00 | 89 | 914.4 |
| 20260510170341 | 67 | 33 | 0.0 | 0.0 | 0.00 | 0.00 | 0.00 | 89 | 914.4 |
| 20260510170042 | 67 | 14 | 0.0 | 1.0 | 0.00 | 0.00 | 0.00 | 89 | 914.5 |
| 20260510165840 | 67 | 10 | 0.0 | 2.0 | 0.00 | 0.00 | 0.00 | 89 | 914.5 |
| 20260510165442 | 67 | 21 | 0.0 | 2.0 | 0.00 | 0.00 | 0.00 | 88 | 914.5 |
| 20260510165340 | 67 | 26 | 0.0 | 2.0 | 0.00 | 0.00 | 0.00 | 88 | 914.6 |
| 20260510164842 | 67 | 20 | 2.0 | 2.0 | 0.00 | 0.00 | 0.00 | 88 | 914.6 |
| 20260510164340 | 67 | 7 | 0.0 | 2.0 | 0.00 | 0.00 | 0.00 | 88 | 914.7 |
| 20260510164242 | 67 | 17 | 0.0 | 2.0 | 0.00 | 0.00 | 0.00 | 88 | 914.7 |
| 20260510163840 | 67 | 352 | 1.0 | 2.0 | 0.00 | 0.00 | 0.00 | 88 | 914.8 |
| 20260510163642 | 67 | 348 | 1.0 | 2.0 | 0.00 | 0.00 | 0.00 | 88 | 914.8 |
| 20260510163340 | 67 | 360 | 1.0 | 2.0 | 0.00 | 0.00 | 0.00 | 88 | 914.9 |
| 20260510163042 | 67 | 360 | 1.0 | 3.0 | 0.00 | 0.00 | 0.00 | 89 | 914.9 |
| 20260510162841 | 67 | 2 | 1.0 | 3.0 | 0.00 | 0.00 | 0.00 | 89 | 914.9 |
| 20260510162441 | 67 | 360 | 2.0 | 3.0 | 0.00 | 0.00 | 0.00 | 89 | 914.9 |
| 20260510162340 | 67 | 12 | 2.0 | 3.0 | 0.00 | 0.00 | 0.00 | 89 | 914.9 |
| 20260510161842 | 67 | 0 | 3.0 | 3.0 | 0.00 | 0.00 | 0.00 | 89 | 914.9 |
| 20260510161840 | 67 | 5 | 3.0 | 3.0 | 0.00 | 0.00 | 0.00 | 89 | 915.0 |
| 20260510161340 | 67 | 20 | 1.0 | 3.0 | 0.00 | 0.00 | 0.00 | 89 | 915.1 |
| 20260510161241 | 67 | 13 | 3.0 | 4.0 | 0.00 | 0.00 | 0.00 | 89 | 915.1 |
| 20260510160840 | 67 | 10 | 2.0 | 3.0 | 0.00 | 0.00 | 0.00 | 90 | 915.2 |
| 20260510160641 | 67 | 3 | 2.0 | 3.0 | 0.00 | 0.00 | 0.00 | 90 | 915.2 |
| 20260510160340 | 67 | 360 | 2.0 | 3.0 | 0.00 | 0.00 | 0.00 | 90 | 915.3 |
| 20260510160041 | 67 | 4 | 2.0 | 3.0 | 0.00 | 0.00 | 0.00 | 91 | 915.3 |
| 20260510155840 | 67 | 2 | 1.0 | 3.0 | 0.00 | 0.00 | 0.00 | 92 | 915.3 |
| 20260510155441 | 67 | 8 | 3.0 | 4.0 | 0.00 | 0.00 | 0.00 | 92 | 915.3 |
| 20260510155340 | 67 | 9 | 3.0 | 4.0 | 0.00 | 0.00 | 0.00 | 93 | 915.2 |
| 20260510154842 | 67 | 26 | 3.0 | 4.0 | 0.00 | 0.00 | 0.00 | 93 | 915.3 |
| 20260510154840 | 67 | 23 | 3.0 | 4.0 | 0.00 | 0.00 | 0.00 | 93 | 915.3 |
| 20260510154340 | 67 | 25 | 3.0 | 4.0 | 0.00 | 0.00 | 0.00 | 93 | 915.4 |
| 20260510153840 | 67 | 15 | 2.0 | 4.0 | 0.00 | 0.00 | 0.00 | 94 | 915.4 |
| 20260510153641 | 67 | 10 | 3.0 | 4.0 | 0.00 | 0.00 | 0.00 | 94 | 915.4 |
| 20260510153340 | 67 | 2 | 3.0 | 4.0 | 0.00 | 0.00 | 0.00 | 94 | 915.5 |
| 20260510153041 | 67 | 19 | 3.0 | 5.0 | 0.00 | 0.00 | 0.00 | 95 | 915.5 |
| 20260510152840 | 66 | 7 | 3.0 | 4.0 | 0.00 | 0.00 | 0.00 | 95 | 915.5 |
| 20260510152441 | 66 | 12 | 3.0 | 4.0 | 0.00 | 0.00 | 0.00 | 95 | 915.5 |
| 20260510151841 | 66 | 24 | 3.0 | 4.0 | 0.00 | 0.00 | 0.00 | 95 | 915.6 |
| 20260510151340 | 66 | 19 | 3.0 | 5.0 | 0.00 | 0.00 | 0.00 | 96 | 915.6 |
| 20260510151241 | 66 | 359 | 3.0 | 5.0 | 0.00 | 0.00 | 0.00 | 96 | 915.6 |
| 20260510150840 | 66 | 360 | 3.0 | 5.0 | 0.00 | 0.00 | 0.00 | 97 | 915.5 |
| 20260510150641 | 66 | 360 | 3.0 | 5.0 | 0.00 | 0.00 | 0.00 | 97 | 915.6 |
| 20260510150340 | 66 | 13 | 3.0 | 4.0 | 0.00 | 0.00 | 0.00 | 98 | 915.6 |
| 20260510150041 | 66 | 9 | 3.0 | 4.0 | 0.00 | 0.00 | 0.00 | 98 | 915.6 |
| 20260510145840 | 66 | 13 | 3.0 | 4.0 | 0.00 | 0.00 | 0.00 | 98 | 915.6 |
| 20260510145441 | 66 | 22 | 3.0 | 3.0 | 0.00 | 0.00 | 0.00 | 98 | 915.7 |
| 20260510145340 | 66 | 23 | 2.0 | 3.0 | 0.00 | 0.00 | 0.00 | 98 | 915.7 |
| 20260510144841 | 65 | 350 | 0.0 | 3.0 | 0.00 | 0.00 | 0.00 | 99 | 915.8 |
| 20260510144340 | 65 | 360 | 3.0 | 4.0 | 0.00 | 0.00 | 0.00 | 98 | 915.8 |
| 20260510144241 | 65 | 3 | 3.0 | 4.0 | 0.00 | 0.00 | 0.00 | 98 | 915.8 |
| 20260510143839 | 65 | 5 | 1.0 | 3.0 | 0.00 | 0.00 | 0.00 | 98 | 915.8 |
| 20260510143641 | 65 | 13 | 3.0 | 4.0 | 0.00 | 0.00 | 0.00 | 98 | 915.8 |
| 20260510143340 | 65 | 32 | 2.0 | 4.0 | 0.00 | 0.00 | 0.00 | 98 | 915.8 |
| 20260510143041 | 65 | 25 | 2.0 | 4.0 | 0.00 | 0.00 | 0.00 | 98 | 915.8 |
| 20260510142839 | 65 | 17 | 3.0 | 4.0 | 0.00 | 0.00 | 0.00 | 98 | 915.8 |
| 20260510142441 | 65 | 17 | 1.0 | 4.0 | 0.00 | 0.00 | 0.00 | 98 | 915.9 |
| 20260510142339 | 65 | 11 | 3.0 | 5.0 | 0.00 | 0.00 | 0.00 | 98 | 915.9 |
| 20260510141840 | 65 | 14 | 4.0 | 5.0 | 0.00 | 0.00 | 0.00 | 98 | 915.8 |
| 20260510141339 | 65 | 12 | 3.0 | 4.0 | 0.00 | 0.00 | 0.00 | 98 | 915.8 |
| 20260510141240 | 64 | 21 | 4.0 | 4.0 | 0.00 | 0.00 | 0.00 | 98 | 915.8 |
| 20260510140839 | 64 | 27 | 3.0 | 5.0 | 0.00 | 0.00 | 0.00 | 98 | 915.8 |
| 20260510140640 | 64 | 18 | 3.0 | 5.0 | 0.00 | 0.00 | 0.00 | 98 | 915.8 |
| 20260510140340 | 64 | 34 | 3.0 | 5.0 | 0.00 | 0.00 | 0.00 | 98 | 915.7 |
| 20260510140040 | 64 | 33 | 4.0 | 5.0 | 0.00 | 0.00 | 0.00 | 98 | 915.8 |
| 20260510135839 | 64 | 26 | 4.0 | 5.0 | 0.00 | 0.00 | 0.00 | 98 | 915.7 |
| 20260510135440 | 64 | 30 | 4.0 | 5.0 | 0.00 | 0.00 | 0.00 | 98 | 915.8 |
| 20260510135339 | 64 | 35 | 4.0 | 5.0 | 0.00 | 0.00 | 0.00 | 98 | 915.8 |
| 20260510134841 | 64 | 32 | 4.0 | 5.0 | 0.00 | 0.00 | 0.00 | 98 | 915.8 |
| 20260510134839 | 64 | 28 | 4.0 | 5.0 | 0.00 | 0.00 | 0.00 | 98 | 915.8 |
| 20260510134340 | 64 | 25 | 3.0 | 5.0 | 0.00 | 0.00 | 0.00 | 98 | 915.8 |
| 20260510134240 | 64 | 31 | 1.0 | 5.0 | 0.00 | 0.00 | 0.00 | 98 | 915.9 |
| 20260510133839 | 64 | 22 | 4.0 | 5.0 | 0.00 | 0.00 | 0.00 | 98 | 915.8 |
| 20260510133640 | 64 | 20 | 4.0 | 5.0 | 0.00 | 0.00 | 0.00 | 98 | 915.9 |
| 20260510133339 | 64 | 27 | 4.0 | 5.0 | 0.00 | 0.00 | 0.00 | 98 | 915.8 |
| 20260510133040 | 64 | 26 | 3.0 | 5.0 | 0.00 | 0.00 | 0.00 | 98 | 915.8 |
| 20260510132839 | 64 | 19 | 4.0 | 6.0 | 0.00 | 0.00 | 0.00 | 98 | 915.7 |
| 20260510132440 | 64 | 31 | 4.0 | 6.0 | 0.00 | 0.00 | 0.00 | 98 | 915.7 |
| 20260510132339 | 64 | 25 | 4.0 | 6.0 | 0.00 | 0.00 | 0.00 | 98 | 915.7 |
| 20260510131840 | 64 | 16 | 4.0 | 6.0 | 0.00 | 0.00 | 0.00 | 98 | 915.6 |
| 20260510131339 | 64 | 10 | 3.0 | 5.0 | 0.00 | 0.00 | 0.00 | 98 | 915.7 |
| 20260510131240 | 64 | 5 | 3.0 | 5.0 | 0.00 | 0.00 | 0.00 | 98 | 915.7 |
| 20260510130839 | 64 | 28 | 2.0 | 6.0 | 0.00 | 0.00 | 0.00 | 98 | 915.7 |
| 20260510130640 | 64 | 359 | 3.0 | 6.0 | 0.00 | 0.00 | 0.00 | 98 | 915.7 |
| 20260510130339 | 64 | 7 | 3.0 | 6.0 | 0.00 | 0.00 | 0.00 | 98 | 915.8 |
| 20260510130040 | 64 | 344 | 3.0 | 6.0 | 0.00 | 0.00 | 0.00 | 98 | 915.8 |
| 20260510125440 | 64 | 360 | 4.0 | 6.0 | 0.00 | 0.00 | 0.00 | 98 | 915.7 |
| 20260510124840 | 64 | 324 | 3.0 | 6.0 | 0.00 | 0.00 | 0.00 | 98 | 915.7 |
| 20260510124338 | 64 | 242 | 3.0 | 6.0 | 0.00 | 0.00 | 0.00 | 98 | 915.7 |
| 20260510123839 | 64 | 345 | 2.0 | 6.0 | 0.00 | 0.00 | 0.00 | 98 | 915.6 |
| 20260510123640 | 64 | 13 | 3.0 | 6.0 | 0.00 | 0.00 | 0.00 | 98 | 915.7 |
| 20260510123338 | 64 | 329 | 0.0 | 2.0 | 0.00 | 0.00 | 0.00 | 98 | 915.6 |
| 20260510123040 | 64 | 12 | 4.0 | 9.0 | 0.00 | 0.00 | 0.00 | 98 | 915.6 |
| 20260510122838 | 64 | 342 | 4.0 | 9.0 | 0.00 | 0.00 | 0.00 | 98 | 915.5 |
| 20260510122440 | 64 | 1 | 6.0 | 9.0 | 0.00 | 0.00 | 0.00 | 98 | 915.5 |
| 20260510122338 | 64 | 34 | 4.0 | 7.0 | 0.00 | 0.00 | 0.00 | 98 | 915.5 |
| 20260510121840 | 64 | 323 | 2.0 | 8.0 | 0.00 | 0.00 | 0.00 | 98 | 915.5 |
| 20260510121838 | 64 | 321 | 2.0 | 8.0 | 0.00 | 0.00 | 0.00 | 98 | 915.6 |
| 20260510121338 | 64 | 355 | 5.0 | 8.0 | 0.00 | 0.00 | 0.00 | 98 | 915.4 |
| 20260510121240 | 64 | 4 | 5.0 | 8.0 | 0.00 | 0.00 | 0.00 | 98 | 915.4 |
| 20260510120838 | 64 | 354 | 2.0 | 6.0 | 0.00 | 0.00 | 0.00 | 98 | 915.5 |
| 20260510120640 | 64 | 18 | 2.0 | 6.0 | 0.00 | 0.00 | 0.00 | 98 | 915.5 |
| 20260510120338 | 64 | 337 | 3.0 | 9.0 | 0.00 | 0.00 | 0.00 | 98 | 915.5 |
| 20260510120039 | 64 | 348 | 3.0 | 9.0 | 0.00 | 0.00 | 0.00 | 98 | 915.6 |
| 20260510115838 | 64 | 35 | 3.0 | 8.0 | 0.00 | 0.00 | 0.00 | 98 | 915.5 |
| 20260510115440 | 64 | 17 | 2.0 | 5.0 | 0.00 | 0.00 | 0.00 | 98 | 915.4 |
| 20260510115338 | 64 | 10 | 0.0 | 5.0 | 0.00 | 0.00 | 0.00 | 98 | 915.4 |
| 20260510114840 | 64 | 41 | 3.0 | 8.0 | 0.00 | 0.00 | 0.00 | 98 | 915.5 |
| 20260510114838 | 64 | 40 | 3.0 | 8.0 | 0.00 | 0.00 | 0.00 | 98 | 915.5 |
| 20260510114338 | 64 | 19 | 5.0 | 8.0 | 0.00 | 0.00 | 0.00 | 98 | 915.4 |
| 20260510114239 | 64 | 6 | 3.0 | 6.0 | 0.00 | 0.00 | 0.00 | 98 | 915.4 |
| 20260510113838 | 64 | 360 | 0.0 | 4.0 | 0.00 | 0.00 | 0.00 | 98 | 915.4 |
| 20260510113639 | 64 | 19 | 0.0 | 5.0 | 0.00 | 0.00 | 0.00 | 98 | 915.3 |
| 20260510113338 | 64 | 18 | 0.0 | 5.0 | 0.00 | 0.00 | 0.00 | 98 | 915.4 |
| 20260510113039 | 64 | 360 | 0.0 | 5.0 | 0.00 | 0.00 | 0.00 | 98 | 915.4 |
| 20260510112840 | 64 | 19 | 2.0 | 5.0 | 0.00 | 0.00 | 0.00 | 98 | 915.4 |
| 20260510112439 | 64 | 348 | 1.0 | 3.0 | 0.00 | 0.00 | 0.00 | 98 | 915.4 |
| 20260510112338 | 64 | 359 | 0.0 | 2.0 | 0.00 | 0.00 | 0.00 | 98 | 915.4 |
| 20260510111840 | 64 | 40 | 3.0 | 5.0 | 0.00 | 0.00 | 0.00 | 98 | 915.3 |
| 20260510111838 | 64 | 39 | 3.0 | 5.0 | 0.00 | 0.00 | 0.00 | 98 | 915.3 |
| 20260510111338 | 64 | 26 | 0.0 | 2.0 | 0.00 | 0.00 | 0.00 | 98 | 915.3 |
| 20260510111239 | 64 | 3 | 1.0 | 4.0 | 0.00 | 0.00 | 0.00 | 98 | 915.3 |
| 20260510110039 | 64 | 9 | 1.0 | 5.0 | 0.00 | 0.00 | 0.00 | 98 | 915.2 |
| 20260510105839 | 64 | 348 | 2.0 | 5.0 | 0.00 | 0.00 | 0.00 | 98 | 915.1 |
| 20260510105439 | 64 | 6 | 2.0 | 4.0 | 0.00 | 0.00 | 0.00 | 99 | 915.0 |
| 20260510105338 | 64 | 20 | 0.0 | 3.0 | 0.00 | 0.00 | 0.00 | 99 | 915.1 |
| 20260510101839 | 65 | 65 | 0.0 | 4.0 | 0.00 | 0.00 | 0.00 | 98 | 915.0 |
| 20260510101837 | 65 | 64 | 0.0 | 4.0 | 0.00 | 0.00 | 0.00 | 98 | 915.0 |
| 20260510101337 | 65 | 358 | 0.0 | 6.0 | 0.00 | 0.00 | 0.00 | 98 | 915.0 |
| 20260510100837 | 65 | 15 | 3.0 | 6.0 | 0.00 | 0.00 | 0.00 | 98 | 914.9 |
| 20260510100639 | 65 | 115 | 3.0 | 6.0 | 0.00 | 0.00 | 0.00 | 98 | 914.8 |
| 20260510100337 | 65 | 3 | 2.0 | 4.0 | 0.00 | 0.00 | 0.00 | 98 | 914.8 |
| 20260510100038 | 65 | 20 | 1.0 | 4.0 | 0.00 | 0.00 | 0.00 | 98 | 914.8 |
| 20260510095837 | 65 | 39 | 0.0 | 4.0 | 0.00 | 0.00 | 0.00 | 98 | 914.8 |
| 20260510095438 | 65 | 358 | 1.0 | 4.0 | 0.00 | 0.00 | 0.00 | 98 | 914.8 |
| 20260510095338 | 65 | 330 | 0.0 | 1.0 | 0.00 | 0.00 | 0.00 | 98 | 914.9 |
| 20260510094839 | 65 | 71 | 0.0 | 3.0 | 0.00 | 0.00 | 0.00 | 98 | 914.9 |
| 20260510094837 | 65 | 70 | 0.0 | 3.0 | 0.00 | 0.00 | 0.00 | 98 | 914.9 |
| 20260510094337 | 65 | 64 | 0.0 | 1.0 | 0.00 | 0.00 | 0.00 | 98 | 914.8 |
| 20260510094239 | 65 | 45 | 0.0 | 1.0 | 0.00 | 0.00 | 0.00 | 98 | 914.8 |
| 20260510093638 | 65 | 116 | 0.0 | 0.0 | 0.00 | 0.00 | 0.00 | 98 | 914.8 |
| 20260510093337 | 65 | 55 | 0.0 | 0.0 | 0.00 | 0.00 | 0.00 | 98 | 914.8 |
| 20260510093038 | 65 | 0 | 1.0 | 5.0 | 0.00 | 0.00 | 0.00 | 98 | 914.8 |
| 20260510092837 | 65 | 28 | 1.0 | 5.0 | 0.00 | 0.00 | 0.00 | 98 | 914.8 |
| 20260510092438 | 65 | 41 | 0.0 | 1.0 | 0.00 | 0.00 | 0.00 | 98 | 914.8 |
| 20260510092337 | 65 | 173 | 0.0 | 1.0 | 0.00 | 0.00 | 0.00 | 98 | 914.8 |
| 20260510091839 | 65 | 93 | 0.0 | 0.0 | 0.00 | 0.00 | 0.00 | 98 | 914.8 |
| 20260510091837 | 65 | 92 | 0.0 | 0.0 | 0.00 | 0.00 | 0.00 | 98 | 914.8 |
| 20260510091337 | 65 | 72 | 0.0 | 3.0 | 0.00 | 0.00 | 0.00 | 98 | 914.8 |
| 20260510091238 | 65 | 58 | 1.0 | 3.0 | 0.00 | 0.00 | 0.00 | 98 | 914.7 |
| 20260510090837 | 65 | 35 | 0.0 | 2.0 | 0.00 | 0.00 | 0.00 | 98 | 914.6 |
| 20260510090638 | 65 | 131 | 0.0 | 0.0 | 0.00 | 0.00 | 0.00 | 98 | 914.6 |
| 20260510090337 | 65 | 129 | 0.0 | 0.0 | 0.00 | 0.00 | 0.00 | 98 | 914.6 |
| 20260510090039 | 65 | 157 | 0.0 | 4.0 | 0.00 | 0.00 | 0.00 | 98 | 914.6 |
| 20260510085837 | 65 | 48 | 0.0 | 4.0 | 0.00 | 0.00 | 0.00 | 98 | 914.6 |
| 20260510085438 | 65 | 50 | 0.0 | 0.0 | 0.00 | 0.00 | 0.00 | 98 | 914.6 |
| 20260510085336 | 65 | 9 | 0.0 | 0.0 | 0.00 | 0.00 | 0.00 | 98 | 914.6 |
| 20260510084838 | 65 | 103 | 0.0 | 0.0 | 0.00 | 0.00 | 0.00 | 98 | 914.6 |
| 20260510084238 | 66 | 106 | 0.0 | 3.0 | 0.00 | 0.00 | 0.00 | 98 | 914.6 |
| 20260510083638 | 65 | 31 | 0.0 | 4.0 | 0.00 | 0.00 | 0.00 | 98 | 914.6 |
| 20260510083038 | 65 | 60 | 0.0 | 6.0 | 0.00 | 0.00 | 0.00 | 98 | 914.6 |
| 20260510082438 | 65 | 85 | 0.0 | 3.0 | 0.00 | 0.00 | 0.00 | 98 | 914.6 |
| 20260510081839 | 65 | 48 | 0.0 | 6.0 | 0.00 | 0.00 | 0.00 | 98 | 914.7 |
| 20260510081238 | 66 | 133 | 0.0 | 3.0 | 0.00 | 0.00 | 0.00 | 98 | 914.7 |
| 20260510080638 | 65 | 96 | 0.0 | 0.0 | 0.00 | 0.00 | 0.00 | 98 | 914.7 |
| 20260510080037 | 65 | 71 | 0.0 | 4.0 | 0.00 | 0.00 | 0.00 | 98 | 914.6 |
| 20260510074838 | 66 | 184 | 0.0 | 3.0 | 0.00 | 0.00 | 0.00 | 98 | 914.5 |
| 20260510074836 | 66 | 181 | 0.0 | 3.0 | 0.00 | 0.00 | 0.00 | 98 | 914.5 |
| 20260510074336 | 66 | 50 | 1.0 | 4.0 | 0.00 | 0.00 | 0.00 | 98 | 914.4 |
| 20260510074238 | 66 | 337 | 0.0 | 4.0 | 0.00 | 0.00 | 0.00 | 98 | 914.4 |
| 20260510073836 | 65 | 48 | 2.0 | 5.0 | 0.00 | 0.00 | 0.00 | 98 | 914.4 |
| 20260510073637 | 65 | 34 | 2.0 | 5.0 | 0.00 | 0.00 | 0.00 | 98 | 914.5 |
| 20260510073037 | 66 | 45 | 3.0 | 5.0 | 0.00 | 0.00 | 0.00 | 98 | 914.5 |
| 20260510072439 | 65 | 36 | 1.0 | 5.0 | 0.00 | 0.00 | 0.00 | 98 | 914.5 |
| 20260510071838 | 65 | 96 | 0.0 | 0.0 | 0.00 | 0.00 | 0.00 | 98 | 914.6 |
| 20260510071237 | 65 | 80 | 0.0 | 1.0 | 0.00 | 0.00 | 0.00 | 98 | 914.6 |
| 20260510070836 | 66 | 72 | 0.0 | 0.0 | 0.00 | 0.00 | 0.00 | 98 | 914.6 |
| 20260510070637 | 66 | 71 | 0.0 | 2.0 | 0.00 | 0.00 | 0.00 | 98 | 914.7 |
| 20260510070336 | 66 | 230 | 0.0 | 0.0 | 0.00 | 0.00 | 0.00 | 99 | 914.7 |
| 20260510070037 | 64 | 317 | 0.0 | 4.0 | 0.00 | 0.00 | 0.00 | 98 | 914.7 |
| 20260510065836 | 64 | 62 | 2.0 | 4.0 | 0.00 | 0.00 | 0.00 | 98 | 914.7 |
| 20260510065437 | 64 | 58 | 1.0 | 2.0 | 0.00 | 0.00 | 0.00 | 98 | 914.8 |
| 20260510065342 | 64 | 68 | 1.0 | 2.0 | 0.00 | 0.00 | 0.00 | 98 | 914.9 |
| 20260510064237 | 64 | 97 | 0.0 | 2.0 | 0.00 | 0.00 | 0.00 | 98 | 915.0 |
| 20260510063637 | 64 | 42 | 0.0 | 0.0 | 0.00 | 0.00 | 0.00 | 98 | 915.1 |
| 20260510063037 | 64 | 86 | 1.0 | 3.0 | 0.00 | 0.00 | 0.00 | 98 | 915.0 |
| 20260510062437 | 64 | 57 | 1.0 | 2.0 | 0.00 | 0.00 | 0.00 | 98 | 915.2 |
| 20260510061836 | 63 | 90 | 0.0 | 0.0 | 0.00 | 0.00 | 0.00 | 98 | 915.3 |
| 20260510061335 | 64 | 109 | 0.0 | 2.0 | 0.00 | 0.00 | 0.00 | 98 | 915.3 |
| 20260510061237 | 64 | 97 | 0.0 | 2.0 | 0.00 | 0.00 | 0.00 | 98 | 915.4 |
| 20260510060835 | 64 | 104 | 0.0 | 1.0 | 0.00 | 0.00 | 0.00 | 98 | 915.4 |
| 20260510060637 | 64 | 71 | 0.0 | 1.0 | 0.00 | 0.00 | 0.00 | 98 | 915.4 |
| 20260510060037 | 64 | 72 | 1.0 | 4.0 | 0.00 | 0.00 | 0.00 | 98 | 915.4 |
| 20260510055437 | 63 | 84 | 1.0 | 4.0 | 0.00 | 0.00 | 0.00 | 98 | 915.5 |
| 20260510054837 | 64 | 85 | 1.0 | 5.0 | 0.00 | 0.00 | 0.00 | 98 | 915.5 |
| 20260510054335 | 64 | 90 | 0.0 | 2.0 | 0.00 | 0.00 | 0.00 | 98 | 915.6 |
| 20260510054236 | 64 | 76 | 0.0 | 2.0 | 0.00 | 0.00 | 0.00 | 98 | 915.6 |
| 20260510053835 | 64 | 57 | 2.0 | 3.0 | 0.00 | 0.00 | 0.00 | 98 | 915.6 |
| 20260510053636 | 64 | 96 | 1.0 | 3.0 | 0.00 | 0.00 | 0.00 | 98 | 915.6 |
| 20260510053335 | 64 | 102 | 2.0 | 4.0 | 0.00 | 0.00 | 0.00 | 98 | 915.6 |
| 20260510053036 | 64 | 123 | 3.0 | 5.0 | 0.00 | 0.00 | 0.00 | 98 | 915.7 |
| 20260510052836 | 64 | 110 | 1.0 | 3.0 | 0.00 | 0.00 | 0.00 | 98 | 915.7 |
| 20260510052436 | 64 | 165 | 0.0 | 0.0 | 0.00 | 0.00 | 0.00 | 98 | 915.8 |
| 20260510050335 | 64 | 100 | 3.0 | 4.0 | 0.00 | 0.00 | 0.00 | 98 | 915.8 |
| 20260510050036 | 64 | 75 | 2.0 | 4.0 | 0.00 | 0.00 | 0.00 | 98 | 915.8 |
| 20260510045835 | 64 | 78 | 1.0 | 4.0 | 0.00 | 0.00 | 0.00 | 98 | 915.8 |
| 20260510045436 | 63 | 51 | 0.0 | 3.0 | 0.00 | 0.00 | 0.00 | 98 | 915.8 |
| 20260510045335 | 64 | 77 | 1.0 | 4.0 | 0.00 | 0.00 | 0.00 | 98 | 915.8 |
| 20260510044836 | 63 | 122 | 2.0 | 4.0 | 0.00 | 0.00 | 0.00 | 98 | 915.8 |
| 20260510044335 | 63 | 84 | 1.0 | 6.0 | 0.00 | 0.00 | 0.00 | 98 | 915.8 |
| 20260510044236 | 63 | 89 | 1.0 | 6.0 | 0.00 | 0.00 | 0.00 | 97 | 915.9 |
| 20260510043835 | 64 | 85 | 3.0 | 5.0 | 0.00 | 0.00 | 0.00 | 98 | 916.0 |
| 20260510043636 | 64 | 87 | 4.0 | 7.0 | 0.00 | 0.00 | 0.00 | 98 | 916.0 |
| 20260510043335 | 64 | 67 | 4.0 | 7.0 | 0.00 | 0.00 | 0.00 | 98 | 916.0 |
| 20260510043037 | 63 | 84 | 3.0 | 7.0 | 0.00 | 0.00 | 0.00 | 98 | 916.0 |
| 20260510042836 | 63 | 45 | 4.0 | 7.0 | 0.00 | 0.00 | 0.00 | 97 | 916.0 |
| 20260510042436 | 63 | 68 | 4.0 | 6.0 | 0.00 | 0.00 | 0.00 | 97 | 916.1 |
| 20260510042334 | 63 | 72 | 4.0 | 5.0 | 0.00 | 0.00 | 0.00 | 98 | 916.1 |
| 20260510041836 | 63 | 74 | 0.0 | 0.0 | 0.00 | 0.00 | 0.00 | 98 | 916.2 |
| 20260510041334 | 63 | 90 | 2.0 | 5.0 | 0.00 | 0.00 | 0.00 | 98 | 916.2 |
| 20260510041236 | 63 | 51 | 3.0 | 5.0 | 0.00 | 0.00 | 0.00 | 98 | 916.2 |
| 20260510040834 | 63 | 83 | 3.0 | 5.0 | 0.00 | 0.00 | 0.00 | 98 | 916.2 |
| 20260510040636 | 63 | 74 | 4.0 | 5.0 | 0.00 | 0.00 | 0.00 | 97 | 916.2 |
| 20260510040334 | 63 | 77 | 3.0 | 5.0 | 0.00 | 0.00 | 0.00 | 98 | 916.2 |
| 20260510040036 | 63 | 81 | 3.0 | 5.0 | 0.00 | 0.00 | 0.00 | 97 | 916.2 |
| 20260510035834 | 63 | 99 | 2.0 | 5.0 | 0.00 | 0.00 | 0.00 | 98 | 916.3 |
| 20260510035436 | 63 | 87 | 2.0 | 5.0 | 0.00 | 0.00 | 0.00 | 98 | 916.4 |
| 20260510035334 | 63 | 56 | 3.0 | 5.0 | 0.00 | 0.00 | 0.00 | 97 | 916.4 |
| 20260510034836 | 63 | 61 | 3.0 | 5.0 | 0.00 | 0.00 | 0.00 | 98 | 916.4 |
| 20260510034236 | 63 | 63 | 4.0 | 6.0 | 0.00 | 0.00 | 0.00 | 98 | 916.3 |
| 20260510033635 | 63 | 73 | 3.0 | 6.0 | 0.00 | 0.00 | 0.00 | 98 | 916.4 |
| 20260510033334 | 63 | 72 | 2.0 | 5.0 | 0.00 | 0.00 | 0.00 | 97 | 916.4 |
| 20260510033035 | 63 | 76 | 0.0 | 5.0 | 0.00 | 0.00 | 0.00 | 98 | 916.4 |
| 20260510032835 | 63 | 88 | 2.0 | 3.0 | 0.00 | 0.00 | 0.00 | 98 | 916.3 |
| 20260510032435 | 63 | 73 | 1.0 | 4.0 | 0.00 | 0.00 | 0.00 | 97 | 916.3 |
| 20260510031836 | 63 | 54 | 2.0 | 6.0 | 0.00 | 0.00 | 0.00 | 97 | 916.4 |
| 20260510031834 | 63 | 55 | 2.0 | 6.0 | 0.00 | 0.00 | 0.00 | 97 | 916.4 |
| 20260510031334 | 63 | 60 | 3.0 | 6.0 | 0.00 | 0.00 | 0.00 | 98 | 916.5 |
| 20260510031235 | 63 | 78 | 3.0 | 6.0 | 0.00 | 0.00 | 0.00 | 98 | 916.5 |
| 20260510030834 | 63 | 84 | 4.0 | 6.0 | 0.00 | 0.00 | 0.00 | 98 | 916.5 |
| 20260510030635 | 63 | 71 | 2.0 | 6.0 | 0.00 | 0.00 | 0.00 | 98 | 916.5 |
| 20260510030334 | 63 | 58 | 2.0 | 6.0 | 0.00 | 0.00 | 0.00 | 98 | 916.6 |
| 20260510030035 | 63 | 101 | 4.0 | 6.0 | 0.00 | 0.00 | 0.00 | 98 | 916.6 |
| 20260510025834 | 63 | 83 | 1.0 | 5.0 | 0.00 | 0.00 | 0.00 | 98 | 916.6 |
| 20260510025435 | 63 | 106 | 3.0 | 6.0 | 0.00 | 0.00 | 0.00 | 98 | 916.6 |
| 20260510025334 | 63 | 89 | 4.0 | 6.0 | 0.00 | 0.00 | 0.00 | 97 | 916.6 |
| 20260510024836 | 63 | 83 | 3.0 | 5.0 | 0.00 | 0.00 | 0.00 | 98 | 916.6 |
| 20260510024834 | 63 | 86 | 3.0 | 5.0 | 0.00 | 0.00 | 0.00 | 98 | 916.6 |
| 20260510024334 | 63 | 98 | 1.0 | 5.0 | 0.00 | 0.00 | 0.00 | 98 | 916.7 |
| 20260510023334 | 62 | 105 | 0.0 | 4.0 | 0.00 | 0.00 | 0.00 | 98 | 916.7 |
| 20260510023035 | 63 | 89 | 4.0 | 6.0 | 0.00 | 0.00 | 0.00 | 98 | 916.7 |
| 20260510022834 | 62 | 101 | 0.0 | 6.0 | 0.00 | 0.00 | 0.00 | 98 | 916.8 |
| 20260510022435 | 63 | 100 | 0.0 | 6.0 | 0.00 | 0.00 | 0.00 | 98 | 916.8 |
| 20260510022334 | 63 | 93 | 5.0 | 6.0 | 0.00 | 0.00 | 0.00 | 98 | 916.8 |
| 20260510021334 | 63 | 97 | 0.0 | 5.0 | 0.00 | 0.00 | 0.00 | 98 | 916.9 |
| 20260510021235 | 63 | 107 | 2.0 | 5.0 | 0.00 | 0.00 | 0.00 | 98 | 916.9 |
| 20260510020834 | 62 | 96 | 0.0 | 3.0 | 0.00 | 0.00 | 0.00 | 98 | 916.9 |
| 20260510020635 | 62 | 86 | 1.0 | 3.0 | 0.00 | 0.00 | 0.00 | 98 | 916.9 |
| 20260510015833 | 63 | 96 | 2.0 | 4.0 | 0.00 | 0.00 | 0.00 | 98 | 916.9 |
| 20260510015435 | 62 | 60 | 0.0 | 4.0 | 0.00 | 0.00 | 0.00 | 98 | 916.8 |
| 20260510015333 | 63 | 98 | 2.0 | 7.0 | 0.00 | 0.00 | 0.00 | 98 | 916.8 |
| 20260510013635 | 62 | 84 | 7.0 | 9.0 | 0.00 | 0.00 | 0.00 | 98 | 916.8 |
| 20260510013333 | 63 | 70 | 5.0 | 11.0 | 0.00 | 0.00 | 0.00 | 98 | 916.8 |
| 20260510013035 | 62 | 72 | 6.0 | 11.0 | 0.00 | 0.00 | 0.00 | 98 | 916.8 |
| 20260510012833 | 62 | 77 | 7.0 | 11.0 | 0.00 | 0.00 | 0.00 | 98 | 916.8 |
| 20260510012434 | 62 | 73 | 3.0 | 11.0 | 0.00 | 0.00 | 0.00 | 98 | 916.8 |
| 20260510011333 | 62 | 75 | 2.0 | 8.0 | 0.00 | 0.00 | 0.00 | 98 | 916.7 |
| 20260510011235 | 62 | 82 | 6.0 | 9.0 | 0.00 | 0.00 | 0.00 | 98 | 916.7 |
| 20260510010634 | 62 | 64 | 2.0 | 9.0 | 0.00 | 0.00 | 0.00 | 98 | 916.6 |
| 20260510010334 | 62 | 85 | 4.0 | 7.0 | 0.00 | 0.00 | 0.00 | 98 | 916.6 |
| 20260510010034 | 62 | 56 | 6.0 | 8.0 | 0.00 | 0.00 | 0.00 | 98 | 916.5 |
| 20260510005833 | 62 | 71 | 4.0 | 8.0 | 0.00 | 0.00 | 0.00 | 98 | 916.5 |
| 20260510005434 | 62 | 70 | 6.0 | 8.0 | 0.00 | 0.00 | 0.00 | 98 | 916.6 |
| 20260510005333 | 62 | 86 | 2.0 | 7.0 | 0.00 | 0.00 | 0.00 | 98 | 916.5 |
| 20260510004835 | 62 | 65 | 7.0 | 9.0 | 0.00 | 0.00 | 0.00 | 97 | 916.5 |
| 20260510004333 | 62 | 77 | 6.0 | 9.0 | 0.00 | 0.00 | 0.00 | 98 | 916.4 |
| 20260510004234 | 62 | 80 | 6.0 | 9.0 | 0.00 | 0.00 | 0.00 | 97 | 916.4 |
| 20260510003833 | 62 | 81 | 7.0 | 9.0 | 0.00 | 0.00 | 0.00 | 98 | 916.3 |
| 20260510003634 | 62 | 67 | 7.0 | 9.0 | 0.00 | 0.00 | 0.00 | 98 | 916.3 |
| 20260510003333 | 62 | 73 | 6.0 | 9.0 | 0.00 | 0.00 | 0.00 | 98 | 916.3 |
| 20260510003034 | 62 | 70 | 7.0 | 9.0 | 0.00 | 0.00 | 0.00 | 98 | 916.2 |
| 20260510002833 | 62 | 68 | 7.0 | 8.0 | 0.00 | 0.00 | 0.00 | 98 | 916.1 |
| 20260510002434 | 62 | 70 | 6.0 | 7.0 | 0.00 | 0.00 | 0.00 | 97 | 916.2 |
| 20260510002333 | 62 | 80 | 2.0 | 7.0 | 0.00 | 0.00 | 0.00 | 98 | 916.2 |
| 20260510001834 | 62 | 66 | 5.0 | 7.0 | 0.00 | 0.00 | 0.00 | 98 | 916.1 |
| 20260510001332 | 62 | 44 | 2.0 | 5.0 | 0.00 | 0.00 | 0.00 | 98 | 916.1 |
| 20260510000833 | 62 | 53 | 5.0 | 8.0 | 0.00 | 0.00 | 0.00 | 97 | 916.1 |
| 20260510000634 | 62 | 69 | 5.0 | 8.0 | 0.00 | 0.00 | 0.00 | 98 | 916.1 |
| 20260510000333 | 62 | 57 | 6.0 | 8.0 | 0.00 | 0.00 | 0.00 | 98 | 916.0 |
| 20260510000034 | 62 | 79 | 6.0 | 8.0 | 0.00 | 0.00 | 0.00 | 97 | 916.0 |
| 20260509235832 | 62 | 75 | 5.0 | 7.0 | 0.00 | 0.00 | 0.00 | 98 | 916.0 |
| 20260509235333 | 62 | 64 | 6.0 | 9.0 | 0.00 | 0.00 | 0.00 | 98 | 916.0 |
| 20260509234834 | 62 | 66 | 7.0 | 9.0 | 0.00 | 0.00 | 0.00 | 98 | 916.0 |
| 20260509234832 | 62 | 56 | 7.0 | 9.0 | 0.00 | 0.00 | 0.00 | 98 | 916.0 |
| 20260509234332 | 62 | 63 | 7.0 | 10.0 | 0.00 | 0.00 | 0.00 | 97 | 916.0 |
| 20260509234234 | 62 | 55 | 7.0 | 11.0 | 0.00 | 0.00 | 0.00 | 97 | 915.9 |
| 20260509233832 | 62 | 33 | 8.0 | 12.0 | 0.00 | 0.00 | 0.00 | 98 | 915.9 |
| 20260509233634 | 62 | 72 | 8.0 | 12.0 | 0.00 | 0.00 | 0.00 | 98 | 915.8 |
| 20260509233332 | 62 | 64 | 10.0 | 12.0 | 0.00 | 0.00 | 0.00 | 98 | 915.8 |
| 20260509232832 | 62 | 58 | 8.0 | 11.0 | 0.00 | 0.00 | 0.00 | 98 | 915.8 |
| 20260509232434 | 62 | 61 | 9.0 | 11.0 | 0.00 | 0.00 | 0.00 | 98 | 915.7 |
| 20260509232332 | 62 | 61 | 4.0 | 11.0 | 0.00 | 0.00 | 0.00 | 98 | 915.7 |
| 20260509231834 | 62 | 98 | 10.0 | 12.0 | 0.00 | 0.00 | 0.00 | 98 | 915.5 |
| 20260509231832 | 62 | 57 | 10.0 | 12.0 | 0.00 | 0.00 | 0.00 | 98 | 915.5 |
| 20260509231332 | 62 | 77 | 9.0 | 12.0 | 0.00 | 0.00 | 0.00 | 98 | 915.5 |
| 20260509231234 | 62 | 78 | 4.0 | 11.0 | 0.00 | 0.00 | 0.00 | 98 | 915.6 |
| 20260509230832 | 62 | 76 | 9.0 | 11.0 | 0.00 | 0.00 | 0.00 | 97 | 915.5 |
| 20260509230633 | 62 | 69 | 9.0 | 11.0 | 0.00 | 0.00 | 0.00 | 98 | 915.6 |
| 20260509230332 | 62 | 70 | 9.0 | 11.0 | 0.00 | 0.00 | 0.00 | 97 | 915.6 |
| 20260509230033 | 62 | 65 | 8.0 | 10.0 | 0.00 | 0.00 | 0.00 | 98 | 915.5 |
| 20260509225833 | 62 | 62 | 6.0 | 9.0 | 0.00 | 0.00 | 0.00 | 98 | 915.5 |
| 20260509225433 | 62 | 77 | 7.0 | 9.0 | 0.00 | 0.00 | 0.00 | 97 | 915.5 |
| 20260509225332 | 62 | 89 | 7.0 | 9.0 | 0.00 | 0.00 | 0.00 | 97 | 915.5 |
| 20260509224834 | 62 | 54 | 6.0 | 8.0 | 0.00 | 0.00 | 0.00 | 98 | 915.4 |
| 20260509224832 | 62 | 79 | 6.0 | 8.0 | 0.00 | 0.00 | 0.00 | 98 | 915.4 |